Tracking 28915 objects as of 30-May-2024
HD Live streaming from Space Station
objects crossing your sky now

CUTE-LASP

Track CUTE-LASP now!
10-day predictions
CUTE-LASP is classified as:


NORAD ID: 49263
Int'l Code: 2021-088D
Perigee: 504.9 km
Apogee: 527.0 km
Inclination: 97.5 °
Period: 94.8 minutes
Semi major axis: 6886 km
RCS: Unknown
Launch date: September 27, 2021
Source: United States (US)
Launch site: AIR FORCE WESTERN TEST RANGE (AFWTR)

Uplink (MHz):
Downlink (MHz): 437.250/2402.000
Beacon (MHz):
Mode: 9k6*/19k2GMSK 1MbpsBPSK
Call sign: CUTE
Status: Active

Your satellite tracking list
Your tracking list is empty




NASA's NSSDC Master Catalog

Two Line Element Set (TLE):
1 49263U 21088D   24150.88919442  .00014762  00000-0  70518-3 0  9994
2 49263  97.4973 217.0094 0016017 142.1229 218.1136 15.19018350146864
Source of the keplerian elements: AMSAT